Location: Highridge
(54.0333°N, 114.1333°W)
Time: 21:52:44
(UTC+00:00)

Oscar 19 - Visible Passes

Search period start: 29 November 2023 00:00
Search period end: 09 December 2023 00:00
Orbit: 771 x 789 km, 98.9° (Epoch: 29 November)

Date Brightness Start Highest point End Pass type
(mag) Time Alt. Az. Time Alt. Az. Time Alt. Az.
29 Nov 11.8 11:56:14 10° NNE 12:01:06 41° E 12:05:57 10° SSE visible
29 Nov 11.0 13:35:37 10° N 13:40:22 39° WNW 13:45:08 10° SW visible
30 Nov 13.7 01:02:29 10° WSW 01:04:47 13° W 01:07:06 10° WNW visible
30 Nov 12.7 11:24:20 10° NE 11:28:29 24° E 11:32:36 10° SE visible
30 Nov 10.5 13:03:04 10° NNE 13:08:11 66° WNW 13:13:17 10° SSW visible
30 Nov 12.1 14:43:36 10° NNW 14:46:35 16° NW 14:49:34 10° W visible
01 Dec 13.2 00:27:59 10° SW 00:31:59 23° W 00:36:01 10° NW visible
01 Dec 13.5 10:53:08 10° NE 10:55:41 14° E 10:58:14 10° ESE visible
01 Dec 10.8 12:30:42 10° NNE 12:35:52 74° ESE 12:41:02 10° S visible
01 Dec 11.6 14:10:36 10° N 14:14:41 24° NW 14:18:45 10° WSW visible
01 Dec 12.2 23:54:34 10° SSW 23:59:21 39° W 00:04:09 10° NNW visible
02 Dec 11.7 11:58:30 10° NNE 12:03:24 42° E 12:08:18 10° S visible
02 Dec 11.1 13:37:54 10° N 13:42:38 38° WNW 13:47:23 10° SW visible
03 Dec 13.7 01:04:58 10° WSW 01:07:06 12° W 01:09:15 10° WNW visible
03 Dec 12.7 11:26:35 10° NE 11:30:47 25° E 11:34:58 10° SSE visible
03 Dec 10.5 13:05:22 10° NNE 13:10:28 64° WNW 13:15:34 10° SSW visible
03 Dec 12.1 14:45:55 10° NNW 14:48:50 15° NW 14:51:46 10° W visible
04 Dec 13.3 00:30:21 10° SW 00:34:18 22° W 00:38:16 10° NW visible
04 Dec 13.4 10:55:19 10° NE 10:58:00 14° E 11:00:42 10° ESE visible
04 Dec 10.7 12:32:58 10° NNE 12:38:09 76° ESE 12:43:19 10° SSW visible
04 Dec 11.7 14:12:55 10° N 14:16:57 24° NW 14:20:59 10° WSW visible
04 Dec 12.3 23:56:54 10° SSW 00:01:38 38° W 00:06:25 10° NNW visible
05 Dec 11.7 12:00:46 10° NNE 12:05:41 44° E 12:10:37 10° S visible
05 Dec 11.1 13:40:12 10° N 13:44:55 37° WNW 13:49:38 10° SW visible
06 Dec 13.7 01:07:27 10° WSW 01:09:25 12° W 01:11:23 10° WNW visible
06 Dec 12.6 11:28:49 10° NE 11:33:05 25° E 11:37:20 10° SSE visible
06 Dec 10.6 13:07:38 10° NNE 13:12:44 62° WNW 13:17:50 10° SSW visible
06 Dec 12.2 14:48:15 10° NNW 14:51:06 15° NW 14:53:56 10° W visible
07 Dec 13.3 00:32:42 10° SW 00:36:35 21° W 00:40:30 10° NW visible
07 Dec 13.4 10:57:28 10° NE 11:00:19 15° E 11:03:08 10° ESE visible
07 Dec 10.7 12:35:14 10° NNE 12:40:26 78° ESE 12:45:37 10° SSW visible
07 Dec 11.7 14:15:13 10° N 14:19:12 23° NW 14:23:11 10° WSW visible
07 Dec 12.4 23:59:13 10° SSW 00:03:55 37° W 00:08:41 10° NNW visible
08 Dec 11.6 12:03:00 10° NNE 12:07:59 45° E 12:12:55 10° S visible
08 Dec 11.1 13:42:28 10° N 13:47:10 36° WNW 13:51:52 10° SW visible
